(340968) = 2007 EL112

Discovered at Mount Lemmon on 2007-03-11 by Mt. Lemmon Survey.

Orbit

Orbit type: Main Belt

Note: WebGL enabled browser required.

epoch2023-02-25.0
epoch JD2460000.5
perihelion date2019-11-18.52214
perihelion JD2458806.02214
argument of perihelion (°)61.27342
ascending node (°)184.80603
inclination (°)11.51782
eccentricity0.2439640
perihelion distance (AU)1.9446800
Tisserand w.r.t. Jupiter3.4
ΔV w.r.t. Earth (km/sec)9.4
semimajor axis (AU)2.5722057
mean anomaly (°)285.37992
mean daily motion (°/day)0.23891600
aphelion distance (AU)3.200
period (years)4.13
P-vector [x]-0.40694912
P-vector [y]-0.89218324
P-vector [z]-0.19596296
Q-vector [x]0.91329762
Q-vector [y]-0.40133654
Q-vector [z]-0.06940054
absolute magnitude16.94
phase slope0.15
uncertainty0
referenceMPO 745323
observations used293
oppositions12
arc length (days)7282
first opposition used2003
last opposition used2023
residual rms (arc-secs)0.85
perturbers coarse indicatorM-v
perturbers precise indicator003Ek
first observation date used2003-05-09.0
last observation date used2023-04-16.0
computer nameMPCLINUX
JD of orbit computation2456216.424762
perihelion JD uncertainty (days)1.1961E-03
argument of perihelion uncertainty (°)3.1244E-04
ascending node uncertainty (°)3.8134E-05
inclination uncertainty (°)2.7420E-05
eccentricity uncertainty 8.0659E-07
perihelion distance uncertainty (AU)2.2582E-06
Minimum Orbit Intersection Distances (in AU)
for orbit epoch: 2460000.5, reference: E2023-H35
Mercury1.49408
Venus1.23409
Earth0.96266
Mars0.44064
Jupiter1.89762
Saturn5.94498
Uranus15.8682
Neptune26.7463

Observations

297 total observations over interval: 2003 05 09.33462 – 2023 04 16.164126
These data are available for download (format description).

Date (UT) J2000 RA J2000 Dec Magn Location Ref
2003 05 09.33462 16 48 21.11 -03 44 00.1 18.5   704 – Lincoln Laboratory ETS, New Mexico MPS 279652
2003 05 09.34640 16 48 20.78 -03 43 51.1 18.9   704 – Lincoln Laboratory ETS, New Mexico MPS 279652
2003 05 09.35949 16 48 20.48 -03 43 43.3 19.0   704 – Lincoln Laboratory ETS, New Mexico MPS 279652
2003 05 28.35770 16 37 07.81 -00 50 29.0 19.3 V 703 – Catalina Sky Survey MPS 279652
2003 05 28.36752 16 37 07.36 -00 50 25.4 19.3 V 703 – Catalina Sky Survey MPS 279652
2003 05 28.37733 16 37 06.89 -00 50 20.8 19.0 V 703 – Catalina Sky Survey MPS 279652
2003 05 28.38716 16 37 06.41 -00 50 16.9 19.7 V 703 – Catalina Sky Survey MPS 279652
2007 03 11.46713 14 43 06.49 -10 55 19.0 20.1 V G96 – Mt. Lemmon Survey MPS 204739
2007 03 11.47734 14 43 06.81 -10 55 14.9 19.8 V G96 – Mt. Lemmon Survey MPS 204739
2007 03 11.48742 14 43 07.06 -10 55 11.0 20.1 V G96 – Mt. Lemmon Survey MPS 204739
2007 03 11.49757 14 43 07.39 -10 55 06.7 20.0 V G96 – Mt. Lemmon Survey MPS 204739
2007 03 15.43670 14 44 56.76 -10 26 38.4 19.7 V G96 – Mt. Lemmon Survey MPS 204739
2007 03 15.44397 14 44 56.94 -10 26 35.0 19.7 V G96 – Mt. Lemmon Survey MPS 204739
2007 03 15.45126 14 44 57.08 -10 26 31.4 19.8 V G96 – Mt. Lemmon Survey MPS 204739
2007 03 20.47488 14 46 35.70 -09 44 39.6 20.3 V 691 – Steward Observatory, Kitt Peak-Spacewatch MPS 204739
2007 03 20.49260 14 46 35.93 -09 44 29.6 19.8 V 691 – Steward Observatory, Kitt Peak-Spacewatch MPS 204739
2007 03 20.51032 14 46 36.15 -09 44 20.1 20.1 V 691 – Steward Observatory, Kitt Peak-Spacewatch MPS 204739
2007 04 22.20808 14 39 20.94 -03 19 07.1 19.2 V 691 – Steward Observatory, Kitt Peak-Spacewatch MPS 208155
2007 04 22.22714 14 39 20.22 -03 18 52.6 19.2 V 691 – Steward Observatory, Kitt Peak-Spacewatch MPS 208155
2007 04 22.24670 14 39 19.44 -03 18 37.1 19.4 V 691 – Steward Observatory, Kitt Peak-Spacewatch MPS 208155
2007 05 10.28210 14 27 39.40 +00 10 41.0 18.6 R 699 – Lowell Observatory-LONEOS MPS 209040
2007 05 10.30131 14 27 38.70 +00 10 50.6   699 – Lowell Observatory-LONEOS MPS 209040
2007 05 10.32053 14 27 37.87 +00 11 02.8   699 – Lowell Observatory-LONEOS MPS 209040
2007 05 10.32898 14 27 37.47 +00 11 07.6 18.8 V 703 – Catalina Sky Survey MPS 209040
2007 05 10.33688 14 27 37.11 +00 11 10.6 18.9 V 703 – Catalina Sky Survey MPS 209040
2007 05 10.33973 14 27 37.07 +00 11 13.3   699 – Lowell Observatory-LONEOS MPS 209040
2007 05 10.34477 14 27 36.79 +00 11 14.8 18.3 V 703 – Catalina Sky Survey MPS 209040
2007 05 10.35267 14 27 36.50 +00 11 20.6 18.8 V 703 – Catalina Sky Survey MPS 209040
2008 10 08.21047 01 24 51.76 +04 16 58.5 20.6 V 691 – Steward Observatory, Kitt Peak-Spacewatch MPS 445914
2008 10 08.22807 01 24 50.85 +04 16 49.3 20.7 V 691 – Steward Observatory, Kitt Peak-Spacewatch MPS 445914
2008 10 08.24565 01 24 49.96 +04 16 40.7 20.5 V 691 – Steward Observatory, Kitt Peak-Spacewatch MPS 445914
2011 02 25.45343 13 04 42.21 -08 29 08.1 20.3 V 691 – Steward Observatory, Kitt Peak-Spacewatch MPS 372049
2011 02 25.47110 13 04 42.21 -08 29 01.9 20.2 V 691 – Steward Observatory, Kitt Peak-Spacewatch MPS 372049
2011 02 25.48879 13 04 42.22 -08 28 55.4 20.3 V 691 – Steward Observatory, Kitt Peak-Spacewatch MPS 372049
2011 03 10.71546 13 02 47.36 -06 47 35.6 19.9 R D29 – Purple Mountain Observatory, XuYi Station MPS 373473
2011 03 10.72761 13 02 47.13 -06 47 28.4 20.2 R D29 – Purple Mountain Observatory, XuYi Station MPS 373473
2011 03 10.73975 13 02 46.86 -06 47 21.6 19.7 R D29 – Purple Mountain Observatory, XuYi Station MPS 373473
2011 03 10.75189 13 02 46.56 -06 47 14.7 19.9 R D29 – Purple Mountain Observatory, XuYi Station MPS 373473
2011 03 29.34160 12 53 02.94 -03 14 12.6 18.8 V G96 – Mt. Lemmon Survey MPS 375586
2011 03 29.34875 12 53 02.61 -03 14 07.0 18.8 V G96 – Mt. Lemmon Survey MPS 375586
2011 03 29.35587 12 53 02.32 -03 14 01.4 18.8 V G96 – Mt. Lemmon Survey MPS 375586
2011 03 29.36302 12 53 02.00 -03 13 55.9 18.7 V G96 – Mt. Lemmon Survey MPS 375586
2011 04 02.35423 12 50 16.86 -02 21 51.2 19.4   704 – Lincoln Laboratory ETS, New Mexico MPS 377197
2011 04 02.37850 12 50 15.79 -02 21 31.0 19.5   704 – Lincoln Laboratory ETS, New Mexico MPS 377197
2011 04 02.40287 12 50 14.78 -02 21 12.8 19.6   704 – Lincoln Laboratory ETS, New Mexico MPS 377197
2011 04 03.67926 12 49 20.94 -02 04 26.2 19.0 R D29 – Purple Mountain Observatory, XuYi Station MPS 377197
2011 04 03.68027 12 49 20.93 -02 04 24.8 17.9 R D29 – Purple Mountain Observatory, XuYi Station MPS 377197
2011 04 03.69342 12 49 20.31 -02 04 14.6 19.2 R D29 – Purple Mountain Observatory, XuYi Station MPS 377197
2011 04 03.69443 12 49 20.35 -02 04 15.0 17.9 R D29 – Purple Mountain Observatory, XuYi Station MPS 377197
2011 04 03.70759 12 49 19.63 -02 04 03.4 19.4 R D29 – Purple Mountain Observatory, XuYi Station MPS 377197
2011 04 03.70860 12 49 19.62 -02 04 02.8 18.8 R D29 – Purple Mountain Observatory, XuYi Station MPS 377197
2011 04 03.72175 12 49 19.04 -02 03 52.7 18.5 R D29 – Purple Mountain Observatory, XuYi Station MPS 377197
2011 04 03.72275 12 49 18.98 -02 03 52.6 19.0 R D29 – Purple Mountain Observatory, XuYi Station MPS 377197
2011 04 05.32837 12 48 10.79 -01 42 43.6 19.2   704 – Lincoln Laboratory ETS, New Mexico MPS 377197
2011 04 05.34170 12 48 10.22 -01 42 32.7 18.9   704 – Lincoln Laboratory ETS, New Mexico MPS 377197
2011 04 05.35663 12 48 09.57 -01 42 21.1 19.1   704 – Lincoln Laboratory ETS, New Mexico MPS 377197
2011 04 05.36964 12 48 08.98 -01 42 10.8 19.5   704 – Lincoln Laboratory ETS, New Mexico MPS 377197
2011 04 28.25517 12 34 25.46 +02 46 11.7 19.8   704 – Lincoln Laboratory ETS, New Mexico MPS 380065
2011 04 28.27632 12 34 24.98 +02 46 24.5 19.5   704 – Lincoln Laboratory ETS, New Mexico MPS 380065
2011 04 28.28685 12 34 24.76 +02 46 29.8 19.6   704 – Lincoln Laboratory ETS, New Mexico MPS 380065
2012 09 17.23538 00 51 59.03 +04 55 38.1 20.6 V 691 – Steward Observatory, Kitt Peak-Spacewatch MPS 431914
2012 09 17.25311 00 51 58.24 +04 55 29.4 20.6 V 691 – Steward Observatory, Kitt Peak-Spacewatch MPS 431914
2012 09 17.27083 00 51 57.42 +04 55 19.7 20.7 V 691 – Steward Observatory, Kitt Peak-Spacewatch MPS 431914
2012 09 17.35112 00 51 53.74 +04 54 37.8 20.4 V G96 – Mt. Lemmon Survey MPS 431914
2012 09 17.36030 00 51 53.31 +04 54 32.8 20.8 V G96 – Mt. Lemmon Survey MPS 431914
2012 09 17.36955 00 51 52.88 +04 54 28.0 20.6 V G96 – Mt. Lemmon Survey MPS 431914
2012 09 17.37883 00 51 52.41 +04 54 23.2 20.8 V G96 – Mt. Lemmon Survey MPS 431914
2012 09 21.20956 00 48 56.47 +04 20 15.6 20.9 V 691 – Steward Observatory, Kitt Peak-Spacewatch MPS 431914
2012 09 21.23435 00 48 55.28 +04 20 02.6 20.6 V 691 – Steward Observatory, Kitt Peak-Spacewatch MPS 431914
2012 09 21.24952 00 48 54.57 +04 19 54.2 21.5 V 691 – Steward Observatory, Kitt Peak-Spacewatch MPS 431914
2012 10 04.462965 00 38 06.940 +02 18 42.33 20.2 i F51 – Pan-STARRS 1, Haleakala MPS 434144
2012 10 04.475242 00 38 06.322 +02 18 35.68 20.0 i F51 – Pan-STARRS 1, Haleakala MPS 434144
2012 10 05.29746 00 37 26.00 +02 11 07.8 20.4 V G96 – Mt. Lemmon Survey MPS 434144
2012 10 05.30424 00 37 25.64 +02 11 03.6 20.5 V G96 – Mt. Lemmon Survey MPS 434144
2012 10 05.31105 00 37 25.32 +02 11 00.6 20.6 V G96 – Mt. Lemmon Survey MPS 434144
2012 10 05.31789 00 37 25.03 +02 10 56.6 20.9 V G96 – Mt. Lemmon Survey MPS 434144
2012 10 05.369098 00 37 22.584 +02 10 29.64 20.7 r F51 – Pan-STARRS 1, Haleakala MPS 434144
2012 10 05.464542 00 37 17.723 +02 09 37.96 20.6 i F51 – Pan-STARRS 1, Haleakala MPS 434144
2012 10 05.476620 00 37 17.114 +02 09 31.27 20.8 i F51 – Pan-STARRS 1, Haleakala MPS 434144
2012 10 06.316416 00 36 36.317 +02 01 57.62 21.2 g F51 – Pan-STARRS 1, Haleakala MPS 435137
2012 10 06.335777 00 36 35.343 +02 01 47.29 21.1 g F51 – Pan-STARRS 1, Haleakala MPS 435137
2012 10 14.38234 00 30 17.10 +00 52 11.4 21.0 V G96 – Mt. Lemmon Survey MPS 435137
2012 10 14.38995 00 30 16.74 +00 52 07.2 20.5 V G96 – Mt. Lemmon Survey MPS 435137
2012 10 14.39760 00 30 16.38 +00 52 03.0 21.0 V G96 – Mt. Lemmon Survey MPS 435137
2012 10 14.40524 00 30 16.02 +00 52 00.1 20.4 V G96 – Mt. Lemmon Survey MPS 435137
2015 02 17.41412 11 38 37.22 -04 42 37.9 20.0 r G45 – Space Surveillance Telescope, Atom Site MPS 591999
